Location: Berg
(47.2344°N, 9.5296°E)
Time: 22:42:36
(UTC+00:00)

Cosmos 1680 Rocket - Pass Details

Date: 24 January 2021
Orbit: 761 x 780 km, 74.1° (Epoch: 03 March)

Event Time Altitude Azimuth Distance (km) Brightness Sun altitude
Rises 17:33:33 0° 338° (NNW) 3,248 6.9 -13.8°
Reaches altitude 10° 17:35:57 10° 339° (NNW) 2,315 6.1 -14.2°
Maximum altitude 17:41:13 82° 67° (ENE) 777 3.4 -15.0°
Drops below altitude 10° 17:46:25 10° 156° (SSE) 2,289 5.8 -15.9°
Sets 17:48:46 0° 157° (SSE) 3,209 6.6 -16.3°
